Regional Weather Roundup
Issued by NWS

Home | Current Version | Previous Version | Text Only | Print | Product List | Glossary Off
Versions: 1 2 3 4 5 6 7 8 9 10 11 12 13 14 15 16 17 18 19 20 21 22 23 24 25 26 27 28 29 30 31 32 33 34 35 36 37 38 39 40 41 42 43 44 45 46 47 48 49 50

576
ASUS45 KSLC 280410
RWRUT

UTAH REGIONAL WEATHER ROUNDUP
NATIONAL WEATHER SERVICE SALT LAKE CITY UT
1000 PM MDT FRI MAY 27 2016

UTZ001>011-023>025-280500-

NORTHERN UTAH

CITY           SKY/WX    TMP DP  RH WIND       PRES   REMARKS
BRIGHAM CITY     N/A     54  45  72 CALM      29.96R
HILL AFB       CLOUDY    58  41  54 N6        29.96R
LOGAN          MOCLDY    51  46  83 S6        29.97S
OGDEN          MOCLDY    58  43  57 N5        29.95R
PROVO AIRPORT  CLOUDY    61  39  44 N12G23    29.96R
SALT LAKE CITY MOCLDY    62  46  55 NW9       29.94R
VERNAL         CLOUDY    53  38  56 NW6       29.97R
WENDOVER       PTCLDY    59  43  55 N16       29.95R
HEBER CITY     CLOUDY    48  39  71 CALM      29.99R
WEST JORDAN    CLEAR     54  45  71 SW10      29.97F

$$

UTZ012>022-026-027-280500-

SOUTHERN/CENTRAL UTAH

CITY           SKY/WX    TMP DP  RH WIND       PRES   REMARKS
BLANDING       CLEAR     52  30  43 N6        30.06R
BRYCE CANYON   PTCLDY    41  30  65 SW3       30.09R
CEDAR CITY     PTCLDY    58  32  37 S6        29.96R
DELTA          PTCLDY    57  39  51 NE6       29.93R
HANKSVILLE     CLEAR     59  36  41 CALM      29.95R
MILFORD        MOCLDY    59  36  42 CALM      29.93R
MOAB/CYNLANDS  PTCLDY    66  34  30 NW5       29.92R
PRICE          CLEAR     54  32  43 NE9       29.99R
ST GEORGE      PTCLDY    75  30  19 SW5       29.83R

$$

REGIONAL REPORTS     COLORADO/ARIZONA

CITY           SKY/WX    TMP DP  RH WIND       PRES   REMARKS
CRAIG, CO      CLOUDY    48  40  73 E5        30.04R
GRAND JUNCTION CLOUDY    54  44  69 E12       29.98S
RIFLE          CLOUDY    49  38  65 CALM      30.02R
MONTROSE       PTCLDY    51  34  52 NE3       30.03R
CORTEZ         CLOUDY    51  33  50 NE5       30.00R
PAGE, AZ       PTCLDY    72  31  22 CALM      29.90R
GRAND CANYON   PTCLDY    46  26  45 CALM      30.06R
KINGMAN        CLEAR     70  27  20 S10       29.88R
FLAGSTAFF      CLOUDY    52  30  43 CALM      30.09R

$$

REGIONAL REPORTS    NEVADA/IDAHO/WYOMING

CITY           SKY/WX    TMP DP  RH WIND       PRES   REMARKS
LAS VEGAS, NV  PTCLDY    84  24  11 W9        29.73R
ELY            MOCLDY    54  37  52 N6        30.01R
ELKO           CLOUDY    60  35  39 VRB7      29.95R
POCATELLO, ID  CLEAR     54  39  57 SW13      29.95R
BURLEY         CLEAR     54  31  41 SW9       29.95R
EVANSTON, WY   CLOUDY    48  34  58 W7        30.05R
ROCK SPRINGS   CLOUDY    50  36  58 W9        30.01R
KEMMERER         N/A     43  34  70 W8        30.04R

$$




USA.gov is the U.S. government's official web portal to all federal, state and local government web resources and services.